Regional Weather Roundup
Issued by NWS

Home | Current Version | Previous Version | Graphics & Text | Print | Product List | Glossary On
Versions: 1 2 3 4 5 6 7 8 9 10 11 12 13 14 15 16 17 18 19 20 21 22 23 24 25 26 27 28 29 30 31 32 33 34 35 36 37 38 39 40 41 42 43 44 45 46 47 48 49 50
432
ASUS43 KLOT 240308
RWRIL

ILLINOIS REGIONAL WEATHER ROUNDUP
NATIONAL WEATHER SERVICE CHICAGO/ROMEOVILLE IL
1000 PM CDT SAT SEP 23 2017

NOTE: "FAIR" INDICATES FEW OR NO CLOUDS BELOW 12,000 FEET WITH NO
SIGNIFICANT WEATHER AND/OR OBSTRUCTIONS TO VISIBILITY.

* THESE STATIONS ARE NOT UNDER NWS QUALITY CONTROL. THEY ALSO MAY NOT
  REPORT WEATHER SUCH AS PRECIPITATION OR FOG.

ILZ001-002-007-009-015-016-024-240400-
NORTHWEST ILLINOIS

CITY           SKY/WX    TMP DP  RH WIND       PRES   REMARKS
MOLINE         CLEAR     76  63  64 CALM      30.00S
STERLING*      CLEAR     70  66  87 E5        30.03S
SAVANNA*       CLEAR     74  66  76 CALM      30.02S
$$

ILZ003-004-008-010-011-017-018-240400-
NORTH CENTRAL ILLINOIS

CITY           SKY/WX    TMP DP  RH WIND       PRES   REMARKS
ROCKFORD       MOCLDY    77  64  64 SE7       30.05R
FREEPORT*      CLEAR     71  64  77 SE5       30.05S
ROCHELLE*      CLEAR     72  64  76 S3        30.05S
DE KALB*       CLEAR     76  65  68 SE6       30.07S
PERU*          CLEAR     78  63  58 SE8       30.05R HX  80
$$

ILZ005-006-012>014-019>023-240400-
NORTHEAST ILLINOIS

CITY           SKY/WX    TMP DP  RH WIND       PRES   REMARKS
CHICAGO-OHARE  CLEAR     78  65  63 SE8       30.05R HX  80
CHICAGO-MIDWAY CLEAR     81  67  62 E6        30.05S HX  83
AURORA         CLEAR     75  66  73 E3        30.06R
LANSING*       CLEAR     77  69  77 SE3       30.06S
JOLIET*        CLEAR     78  69  73 CALM      30.06R HX  80
WAUKEGAN       CLEAR     71  68  90 CALM      30.05S
DUPAGE AIRPORT CLEAR     77  68  73 SE3       30.05S
KANKAKEE*      CLEAR     75  66  72 SE5       30.07R
WHEELING       CLEAR     79  68  69 SE5       30.07R HX  81
MORRIS*        CLEAR     75  65  71 E6        30.04R
ROMEOVILLE*    CLEAR     77  67  70 E6        30.06R
NORTHERLY ISL    N/A     74  68  81 CALM        N/A
$$

LMZ740>746-240400-
SOUTHERN LAKE MICHIGAN

STATION/POSITION SKY/WX   TEMP    WIND        PRES    VSBY  WAVE
                          AIR SEA DIR/SP/G                  HT/PER
                          (F)     (DEG/KT/KT) (MB)    (MI)  (FT/S)
SOUTHERN BUOY              74 72   90/  6/  6 1017.8          0
WILMETTE HARBOR            74 72  150/  6/  8   N/A           1/ 2
HARRISON CRIB              76     150/  4/  5   N/A
BURNHAM HARBOR             73                   N/A
CALUMET HARBOR             77     100/  4/  6 1017.2S
BURNS HARBOR               84     140/  8/ 15 1018.3R
MICHIGAN CITY              78     120/  6/  8   N/A
MICHIGAN CITY 6N           76 73  140/  4/  6   N/A           0
ST. JOSEPH                 76 74  160/  4/  4 1017.9          0
$$

ILZ025>027-034>036-040-047-049-050-058-095>099-240400-
WEST-CENTRAL ILLINOIS

CITY           SKY/WX    TMP DP  RH WIND       PRES   REMARKS
QUINCY         CLEAR     75  60  59 SE5       30.00S
GALESBURG*     CLEAR     75  63  67 CALM      30.03S
MACOMB*        CLEAR     68  62  83 S3        30.03S
JACKSONVILLE*  CLEAR     70  59  69 SE3       30.01F
PITTSFIELD*    CLEAR     75  61  61 CALM      30.02S
$$

ILZ028>032-037-038-041>044-048-051>054-059>061-240400-
CENTRAL ILLINOIS

CITY           SKY/WX    TMP DP  RH WIND       PRES   REMARKS
PONTIAC        CLEAR     71  68  89 SE6       30.05S
BLOOMINGTON    CLEAR     77  65  66 SE8       30.06R
DECATUR        CLEAR     77  61  57 SE9       30.04R
PEORIA         PTCLDY    80  63  55 SE7       30.02S HX  81
LACON*         CLEAR     78  63  60 SE6       30.02S
LINCOLN*       CLEAR     73  64  73 CALM      30.03R
SPRINGFIELD    CLEAR     72  63  73 SE3       30.02S
TAYLORVILLE    CLEAR     76  62  62 SE6       30.03S
$$

ILZ033-039-045-046-055>057-062-063-240400-
EAST-CENTRAL ILLINOIS

CITY           SKY/WX    TMP DP  RH WIND       PRES   REMARKS
CHAMPAIGN      CLEAR     73  61  65 SE6       30.05S
RANTOUL*       CLEAR     77  68  74 CALM      30.06S
MATTOON        CLEAR     75  63  66 S3        30.04S
PARIS*         CLEAR     72  63  72 SE3       30.06S
$$

ILZ079-100>102-240400-
SOUTHWEST ILLINOIS

CITY           SKY/WX    TMP DP  RH WIND       PRES   REMARKS
ALTON          CLEAR     72  63  73 CALM      30.01S
BELLEVILLE     CLEAR     74  63  69 CALM      30.00S
CAHOKIA*       CLEAR     77  62  59 S5        30.00R
SPARTA*        CLEAR     76  62  63 SE5       30.03R
$$

ILZ064>066-069>071-074>076-080>082-084>086-088>090-092>094-240400-
SOUTH-CENTRAL ILLINOIS

CITY           SKY/WX    TMP DP  RH WIND       PRES   REMARKS
CARBONDALE     CLEAR     72  65  78 E5        30.01S
CAIRO*         CLEAR     70  67  92 CALM      30.00S
EFFINGHAM*     CLEAR     72  62  70 CALM      30.05S
MARION         CLEAR     79  63  57 E3        30.03S HX  80
MT. VERNON       N/A     68  62  81 NE3       30.03S
CENTRALIA*     CLEAR     74  62  64 SE3       30.02S
SALEM*         CLEAR     75  60  58 CALM      30.03S
METROPOLIS*    LGT RAIN  73  68  86 CALM      30.02R
$$

ILZ067-068-072-073-078-083-087-091-240400-
SOUTHEAST ILLINOIS

CITY           SKY/WX    TMP DP  RH WIND       PRES   REMARKS
LAWRENCEVILLE  CLEAR     73  66  78 E5        30.04S
FLORA*         CLEAR     71  63  76 CALM      30.03S
FAIRFIELD*     CLEAR     69  60  73 CALM      30.02S
HARRISBURG*    CLEAR     72  63  75 CALM      30.03S
ROBINSON*      CLEAR     65  63  95 CALM      30.05S
CARMI*         CLEAR     66  63  88 CALM      30.02S
$$

ABBREVIATIONS USED IN REMARKS
   TC - TEMPERATURE IN CELSIUS
  WCI - WIND CHILL INDEX
   HX - HEAT INDEX
  VSB - VISIBILITY
$$





USA.gov is the U.S. government's official web portal to all federal, state and local government web resources and services.